Location: C.E.K. Mees Observatory
(42.7003°N, 77.4088°W)
Time: 15:51:10
(UTC-05:00)

Envisat - Pass Details

Date: 25 November 2019
Orbit: 764 x 766 km, 98.1° (Epoch: 09 December)

Event Time Altitude Azimuth Distance (km) Brightness Sun altitude
Rises 05:38:38 0° 33° (NNE) 3,237 6.5 -17.1°
Reaches altitude 10° 05:42:10 10° 58° (ENE) 2,305 6.1 -16.4°
Maximum altitude 05:44:44 14° 89° (E) 2,039 6.3 -16.0°
Drops below altitude 10° 05:47:18 10° 120° (ESE) 2,296 6.7 -15.5°
Sets 05:50:47 0° 145° (SE) 3,216 7.0 -14.9°
